Regional Weather Roundup
Issued by NWS

Home | Current Version | Previous Version | Text Only | Print | Product List | Glossary Off
Versions: 1 2 3 4 5 6 7 8 9 10 11 12 13 14 15 16 17 18 19 20 21 22 23 24 25 26 27 28 29 30 31 32 33 34 35 36 37 38 39 40 41 42 43 44 45 46 47 48 49 50

000
ASUS43 KBIS 292310
RWRND

NORTH DAKOTA REGIONAL WEATHER ROUNDUP
NATIONAL WEATHER SERVICE BISMARCK ND
500 PM CST THU JAN 29 2015

NOTE: "FAIR" INDICATES FEW OR NO CLOUDS BELOW 12,000 FEET WITH NO
SIGNIFICANT WEATHER AND/OR OBSTRUCTIONS TO VISIBILITY.


NDZ001>003-009>011-017-300000-
NORTHWEST NORTH DAKOTA

CITY           SKY/WX    TMP DP  RH WIND       PRES   REMARKS
WILLISTON      CLEAR     32  21  64 CALM      30.39F
MINOT          CLOUDY    17  11  77 NE8       30.45F WCI   7
MINOT AFB      CLOUDY    17  15  89 E8        30.45F WCI   7
$$

NDZ018>021-031>035-040>046-300000-
SOUTHWEST NORTH DAKOTA

CITY           SKY/WX    TMP DP  RH WIND       PRES   REMARKS
BISMARCK       PTCLDY    28  19  69 N7        30.46S
DICKINSON      CLEAR     37  18  46 CALM      30.35S
GARRISON         N/A     25  18  74 NE3       30.43F
HETTINGER ARPT CLEAR     39  14  36 W6        30.38F
$$

NDZ004>008-012>016-024-026-027-054-300000-
NORTHEAST NORTH DAKOTA

CITY           SKY/WX    TMP DP  RH WIND       PRES   REMARKS
GRAND FORKS    PTCLDY    10   3  73 N14       30.56R WCI  -6
GRND FRKS AFB  CLEAR     11   2  67 NE9       30.56R WCI  -2
DEVILS LAKE    CLOUDY    12   3  67 N5        30.49S WCI   4
$$

NDZ022-023-025-028>030-036>039-047>053-300000-
SOUTHEAST NORTH DAKOTA

CITY           SKY/WX    TMP DP  RH WIND       PRES   REMARKS
FARGO          MOCLDY    16   6  65 N14       30.54R WCI   2
JAMESTOWN      FLURRIES  19  12  74 N10       30.48R WCI   7
$$



USA.gov is the U.S. government's official web portal to all federal, state and local government web resources and services.